| time (UTC) | temp F | wind direction | speed knots | gust knots | rain 1hr in | rain 24hr in | rain mn in | humidity % | barometer mb |
| 20260506001340 | 64 | 275 | 5.2 | 9.6 | 0.00 | 0.00 | 0.00 | 72 | 1018.0 |
| 20260506000336 | 64 | 271 | 6.1 | 9.6 | 0.00 | 0.00 | 0.00 | 71 | 1018.1 |
| 20260505235835 | 63 | 277 | 6.1 | 9.6 | 0.00 | 0.00 | 0.00 | 72 | 1018.1 |
| 20260505235334 | 63 | 275 | 6.1 | 9.6 | 0.00 | 0.00 | 0.00 | 71 | 1018.2 |
| 20260505234832 | 63 | 273 | 6.1 | 11.3 | 0.00 | 0.00 | 0.00 | 70 | 1018.2 |
| 20260505234329 | 62 | 273 | 6.1 | 10.4 | 0.00 | 0.00 | 0.00 | 72 | 1018.3 |
| 20260505233827 | 62 | 271 | 7.0 | 11.3 | 0.00 | 0.00 | 0.00 | 71 | 1018.2 |
| 20260505233325 | 62 | 270 | 6.1 | 13.0 | 0.00 | 0.00 | 0.00 | 72 | 1018.3 |
| 20260505232318 | 62 | 276 | 6.1 | 12.2 | 0.00 | 0.00 | 0.00 | 76 | 1018.2 |
| 20260505231818 | 62 | 274 | 6.1 | 12.2 | 0.00 | 0.00 | 0.00 | 74 | 1018.2 |
| 20260505231315 | 62 | 275 | 7.0 | 12.2 | 0.00 | 0.00 | 0.00 | 75 | 1018.2 |
| 20260505230814 | 62 | 279 | 6.1 | 11.3 | 0.00 | 0.00 | 0.00 | 74 | 1018.1 |
| 20260505230312 | 62 | 267 | 7.8 | 13.0 | 0.00 | 0.00 | 0.00 | 73 | 1018.1 |
| 20260505225811 | 62 | 258 | 8.7 | 12.2 | 0.00 | 0.00 | 0.00 | 72 | 1018.2 |
| 20260505224806 | 62 | 270 | 7.8 | 12.2 | 0.00 | 0.00 | 0.00 | 72 | 1018.2 |
| 20260505224304 | 62 | 265 | 7.0 | 13.0 | 0.00 | 0.00 | 0.00 | 71 | 1018.2 |
| 20260505223803 | 62 | 262 | 7.8 | 13.9 | 0.00 | 0.00 | 0.00 | 72 | 1018.3 |
| 20260505222253 | 61 | 252 | 9.6 | 13.9 | 0.00 | 0.00 | 0.00 | 73 | 1018.3 |
| 20260505221751 | 61 | 260 | 7.0 | 12.2 | 0.00 | 0.00 | 0.00 | 77 | 1018.3 |
| 20260505221250 | 61 | 278 | 6.1 | 9.6 | 0.00 | 0.00 | 0.00 | 78 | 1018.2 |
| 20260505220244 | 61 | 311 | 5.2 | 10.4 | 0.00 | 0.00 | 0.00 | 78 | 1018.2 |
| 20260505215742 | 61 | 315 | 5.2 | 8.7 | 0.00 | 0.00 | 0.00 | 78 | 1018.2 |
| 20260505215241 | 60 | 316 | 5.2 | 10.4 | 0.00 | 0.00 | 0.00 | 79 | 1018.2 |
| 20260505214739 | 60 | 322 | 6.1 | 9.6 | 0.00 | 0.00 | 0.00 | 81 | 1018.3 |
| 20260505213735 | 60 | 320 | 5.2 | 9.6 | 0.00 | 0.00 | 0.00 | 80 | 1018.2 |
| 20260505213234 | 59 | 317 | 6.1 | 10.4 | 0.00 | 0.00 | 0.00 | 81 | 1018.2 |
| 20260505212731 | 59 | 323 | 6.1 | 10.4 | 0.00 | 0.00 | 0.00 | 81 | 1018.2 |
| 20260505212230 | 60 | 316 | 4.3 | 9.6 | 0.00 | 0.00 | 0.00 | 83 | 1018.3 |
| 20260505211727 | 59 | 275 | 6.1 | 9.6 | 0.00 | 0.00 | 0.00 | 80 | 1018.2 |
| 20260505210723 | 59 | 259 | 7.8 | 11.3 | 0.00 | 0.00 | 0.00 | 84 | 1018.2 |
| 20260505210222 | 58 | 251 | 7.0 | 11.3 | 0.00 | 0.00 | 0.00 | 84 | 1018.2 |
| 20260505205719 | 58 | 254 | 7.8 | 13.0 | 0.00 | 0.00 | 0.00 | 84 | 1018.1 |
| 20260505204714 | 58 | 258 | 9.6 | 13.9 | 0.00 | 0.00 | 0.00 | 84 | 1018.0 |
| 20260505204212 | 58 | 258 | 9.6 | 14.8 | 0.00 | 0.00 | 0.00 | 83 | 1017.9 |
| 20260505203711 | 58 | 257 | 9.6 | 13.9 | 0.00 | 0.00 | 0.00 | 82 | 1017.9 |
| 20260505203209 | 58 | 260 | 8.7 | 13.0 | 0.00 | 0.00 | 0.00 | 82 | 1017.8 |
| 20260505202205 | 58 | 260 | 7.8 | 12.2 | 0.00 | 0.00 | 0.00 | 83 | 1017.8 |
| 20260505201201 | 58 | 264 | 8.7 | 13.9 | 0.00 | 0.00 | 0.00 | 80 | 1017.7 |
| 20260505200156 | 58 | 265 | 7.8 | 13.0 | 0.00 | 0.00 | 0.00 | 80 | 1017.7 |
| 20260505195655 | 58 | 266 | 7.8 | 13.0 | 0.00 | 0.00 | 0.00 | 81 | 1017.7 |
| 20260505195153 | 59 | 263 | 7.8 | 13.0 | 0.00 | 0.00 | 0.00 | 82 | 1017.7 |
| 20260505194651 | 59 | 268 | 7.0 | 12.2 | 0.00 | 0.00 | 0.00 | 82 | 1017.7 |
| 20260505194150 | 59 | 265 | 7.8 | 13.9 | 0.00 | 0.00 | 0.00 | 81 | 1017.7 |
| 20260505193145 | 59 | 264 | 7.8 | 12.2 | 0.00 | 0.00 | 0.00 | 82 | 1017.7 |
| 20260505192141 | 59 | 258 | 8.7 | 13.0 | 0.00 | 0.00 | 0.00 | 81 | 1017.7 |
| 20260505191137 | 58 | 257 | 8.7 | 13.9 | 0.00 | 0.00 | 0.00 | 81 | 1017.7 |
| 20260505190634 | 58 | 255 | 9.6 | 13.9 | 0.00 | 0.00 | 0.00 | 81 | 1017.6 |
| 20260505190133 | 58 | 255 | 8.7 | 13.0 | 0.00 | 0.01 | 0.00 | 82 | 1017.5 |
| 20260505185632 | 58 | 250 | 7.8 | 11.3 | 0.00 | 0.01 | 0.00 | 83 | 1017.6 |
| 20260505185130 | 58 | 253 | 7.8 | 12.2 | 0.00 | 0.01 | 0.00 | 82 | 1017.6 |
| 20260505184629 | 58 | 255 | 7.0 | 11.3 | 0.00 | 0.01 | 0.00 | 83 | 1017.6 |
| 20260505184128 | 58 | 253 | 7.8 | 10.4 | 0.00 | 0.01 | 0.00 | 84 | 1017.5 |
| 20260505183124 | 59 | 259 | 7.8 | 10.4 | 0.00 | 0.01 | 0.00 | 84 | 1017.5 |
| 20260505182622 | 59 | 256 | 7.8 | 11.3 | 0.00 | 0.01 | 0.00 | 85 | 1017.5 |
| 20260505182121 | 59 | 264 | 4.3 | 8.7 | 0.00 | 0.01 | 0.00 | 86 | 1017.5 |
| 20260505181619 | 59 | 295 | 3.5 | 6.1 | 0.00 | 0.01 | 0.00 | 85 | 1017.4 |
| 20260505181117 | 59 | 303 | 3.5 | 7.8 | 0.00 | 0.01 | 0.00 | 86 | 1017.4 |
| 20260505180615 | 59 | 274 | 5.2 | 9.6 | 0.00 | 0.01 | 0.00 | 85 | 1017.4 |
| 20260505175611 | 59 | 255 | 7.8 | 10.4 | 0.00 | 0.01 | 0.00 | 83 | 1017.3 |
| 20260505175108 | 59 | 252 | 7.8 | 11.3 | 0.00 | 0.01 | 0.00 | 83 | 1017.3 |
| 20260505174104 | 59 | 255 | 8.7 | 12.2 | 0.00 | 0.01 | 0.00 | 83 | 1017.2 |
| 20260505172053 | 59 | 251 | 6.1 | 9.6 | 0.00 | 0.01 | 0.00 | 85 | 1017.4 |
| 20260505171048 | 59 | 311 | 3.5 | 6.1 | 0.00 | 0.01 | 0.00 | 85 | 1017.4 |
| 20260505170546 | 60 | 306 | 3.5 | 6.1 | 0.00 | 0.01 | 0.00 | 85 | 1017.5 |
| 20260505170044 | 60 | 288 | 4.3 | 7.0 | 0.00 | 0.02 | 0.00 | 86 | 1017.6 |
| 20260505165542 | 60 | 266 | 6.1 | 8.7 | 0.00 | 0.02 | 0.00 | 84 | 1017.6 |
| 20260505165041 | 60 | 263 | 7.0 | 9.6 | 0.00 | 0.02 | 0.00 | 84 | 1017.6 |
| 20260505164538 | 60 | 258 | 7.8 | 10.4 | 0.00 | 0.02 | 0.00 | 82 | 1017.6 |
| 20260505164036 | 60 | 252 | 7.8 | 11.3 | 0.00 | 0.03 | 0.00 | 81 | 1017.7 |
| 20260505163535 | 60 | 246 | 7.8 | 11.3 | 0.00 | 0.05 | 0.00 | 81 | 1017.7 |
| 20260505163034 | 60 | 247 | 7.8 | 12.2 | 0.00 | 0.06 | 0.00 | 80 | 1017.6 |
| 20260505162533 | 60 | 250 | 8.7 | 13.0 | 0.00 | 0.10 | 0.00 | 80 | 1017.6 |
| 20260505161527 | 60 | 247 | 7.8 | 11.3 | 0.00 | 0.14 | 0.00 | 82 | 1017.7 |
| 20260505161026 | 60 | 248 | 7.8 | 11.3 | 0.00 | 0.14 | 0.00 | 82 | 1017.7 |
| 20260505160524 | 60 | 249 | 7.8 | 11.3 | 0.00 | 0.15 | 0.00 | 82 | 1017.8 |
| 20260505153008 | 60 | 262 | 7.8 | 10.4 | 0.00 | 0.23 | 0.00 | 78 | 1018.1 |
| 20260505150452 | 60 | 265 | 6.1 | 10.4 | 0.00 | 0.23 | 0.00 | 85 | 1018.3 |
| 20260505140426 | 60 | 244 | 5.2 | 7.0 | 0.00 | 0.23 | 0.00 | 77 | 1018.2 |
| 20260505124401 | 63 | 260 | 5.2 | 6.1 | 0.00 | 0.24 | 0.23 | 81 | 1018.5 |
| 20260505123857 | 63 | 273 | 4.3 | 6.1 | 0.00 | 0.24 | 0.23 | 81 | 1018.5 |
| 20260505123355 | 63 | 272 | 5.2 | 6.1 | 0.00 | 0.24 | 0.23 | 78 | 1018.6 |
| 20260505122852 | 63 | 275 | 5.2 | 6.1 | 0.00 | 0.24 | 0.23 | 76 | 1018.6 |
| 20260505122351 | 63 | 263 | 4.3 | 5.2 | 0.00 | 0.24 | 0.23 | 73 | 1018.6 |
| 20260505121848 | 63 | 260 | 3.5 | 4.3 | 0.00 | 0.24 | 0.23 | 74 | 1018.5 |
| 20260505121346 | 63 | 283 | 4.3 | 5.2 | 0.00 | 0.24 | 0.23 | 77 | 1018.6 |
| 20260505120844 | 64 | 283 | 4.3 | 4.3 | 0.00 | 0.24 | 0.23 | 76 | 1018.7 |
| 20260505120343 | 64 | 272 | 4.3 | 5.2 | 0.00 | 0.24 | 0.23 | 77 | 1018.6 |
| 20260505115841 | 63 | 267 | 4.3 | 5.2 | 0.00 | 0.24 | 0.23 | 78 | 1018.6 |
| 20260505115340 | 63 | 261 | 4.3 | 5.2 | 0.00 | 0.24 | 0.23 | 80 | 1018.7 |
| 20260505114334 | 63 | 255 | 3.5 | 4.3 | 0.00 | 0.24 | 0.23 | 80 | 1018.7 |
| 20260505113832 | 64 | 261 | 3.5 | 3.5 | 0.00 | 0.24 | 0.23 | 80 | 1018.7 |
| 20260505112322 | 64 | 279 | 2.6 | 3.5 | 0.00 | 0.24 | 0.23 | 79 | 1018.6 |
| 20260505111820 | 64 | 285 | 2.6 | 3.5 | 0.00 | 0.24 | 0.23 | 80 | 1018.6 |
| 20260505111319 | 64 | 293 | 3.5 | 3.5 | 0.00 | 0.24 | 0.23 | 82 | 1018.5 |
| 20260505110818 | 64 | 283 | 2.6 | 3.5 | 0.00 | 0.24 | 0.23 | 81 | 1018.6 |
| 20260505110317 | 65 | 290 | 2.6 | 2.6 | 0.00 | 0.24 | 0.23 | 80 | 1018.5 |
| 20260505101758 | 65 | 289 | 3.5 | 3.5 | 0.00 | 0.27 | 0.23 | 63 | 1018.1 |
| 20260505101257 | 66 | 287 | 3.5 | 4.3 | 0.00 | 0.28 | 0.23 | 58 | 1018.3 |
| 20260505100755 | 66 | 271 | 3.5 | 4.3 | 0.00 | 0.28 | 0.23 | 55 | 1018.3 |
| 20260505100252 | 66 | 270 | 3.5 | 4.3 | 0.00 | 0.28 | 0.23 | 54 | 1018.4 |
| 20260505095751 | 66 | 265 | 3.5 | 4.3 | 0.00 | 0.28 | 0.23 | 55 | 1018.3 |
| 20260505095248 | 65 | 248 | 3.5 | 3.5 | 0.00 | 0.29 | 0.23 | 57 | 1018.1 |
| 20260505094746 | 65 | 242 | 3.5 | 3.5 | 0.00 | 0.29 | 0.23 | 57 | 1018.1 |
| 20260505094245 | 65 | 246 | 3.5 | 3.5 | 0.00 | 0.29 | 0.23 | 57 | 1018.2 |
| 20260505093744 | 65 | 235 | 3.5 | 3.5 | 0.00 | 0.30 | 0.23 | 57 | 1018.1 |
| 20260505093243 | 65 | 223 | 3.5 | 3.5 | 0.00 | 0.31 | 0.23 | 57 | 1018.0 |
| 20260505092741 | 65 | 234 | 3.5 | 3.5 | 0.00 | 0.31 | 0.23 | 57 | 1018.0 |
| 20260505092240 | 65 | 232 | 3.5 | 3.5 | 0.00 | 0.31 | 0.23 | 57 | 1018.0 |
| 20260505091738 | 65 | 244 | 3.5 | 3.5 | 0.00 | 0.31 | 0.23 | 56 | 1018.0 |
| 20260505091237 | 65 | 250 | 2.6 | 3.5 | 0.00 | 0.31 | 0.23 | 57 | 1018.1 |
| 20260505090734 | 65 | 231 | 2.6 | 2.6 | 0.00 | 0.31 | 0.23 | 58 | 1018.1 |
| 20260505090233 | 65 | 224 | 2.6 | 2.6 | 0.00 | 0.31 | 0.23 | 57 | 1017.9 |
| 20260505085732 | 65 | 200 | 2.6 | 3.5 | 0.00 | 0.31 | 0.23 | 57 | 1017.8 |
| 20260505084728 | 65 | 201 | 2.6 | 2.6 | 0.00 | 0.32 | 0.23 | 57 | 1017.7 |
| 20260505084226 | 65 | 187 | 2.6 | 3.5 | 0.00 | 0.32 | 0.23 | 56 | 1017.6 |
| 20260505083725 | 65 | 170 | 2.6 | 3.5 | 0.00 | 0.32 | 0.23 | 56 | 1017.4 |
| 20260505083223 | 65 | 187 | 2.6 | 2.6 | 0.00 | 0.32 | 0.23 | 56 | 1017.4 |
| 20260505082722 | 65 | 173 | 2.6 | 2.6 | 0.00 | 0.32 | 0.23 | 57 | 1017.4 |
| 20260505081717 | 65 | 181 | 2.6 | 3.5 | 0.00 | 0.32 | 0.23 | 55 | 1017.2 |
| 20260505081216 | 65 | 185 | 2.6 | 3.5 | 0.00 | 0.32 | 0.23 | 54 | 1017.0 |
| 20260505080714 | 65 | 180 | 2.6 | 3.5 | 0.00 | 0.32 | 0.23 | 54 | 1017.0 |
| 20260505080212 | 65 | 193 | 3.5 | 3.5 | 0.00 | 0.32 | 0.23 | 55 | 1016.9 |
| 20260505075208 | 65 | 187 | 3.5 | 3.5 | 0.00 | 0.32 | 0.23 | 54 | 1016.7 |
| 20260505074202 | 65 | 218 | 3.5 | 4.3 | 0.00 | 0.32 | 0.23 | 57 | 1016.8 |
| 20260505073701 | 65 | 213 | 4.3 | 5.2 | 0.00 | 0.32 | 0.23 | 55 | 1016.8 |
| 20260505073158 | 65 | 223 | 4.3 | 5.2 | 0.00 | 0.32 | 0.23 | 53 | 1016.6 |
| 20260505072657 | 65 | 224 | 3.5 | 5.2 | 0.00 | 0.32 | 0.23 | 52 | 1016.6 |
| 20260505072156 | 65 | 215 | 4.3 | 5.2 | 0.00 | 0.32 | 0.23 | 54 | 1016.5 |
| 20260505071152 | 65 | 214 | 4.3 | 5.2 | 0.00 | 0.32 | 0.23 | 57 | 1016.3 |
| 20260505070650 | 65 | 217 | 3.5 | 3.5 | 0.00 | 0.32 | 0.23 | 55 | 1016.1 |
| 20260505070150 | 65 | 203 | 4.3 | 4.3 | 0.00 | 0.32 | 0.23 | 57 | 1016.1 |
| 20260505065648 | 65 | 203 | 4.3 | 4.3 | 0.00 | 0.32 | 0.23 | 58 | 1016.1 |
| 20260505065147 | 65 | 214 | 4.3 | 5.2 | 0.00 | 0.32 | 0.23 | 57 | 1015.9 |
| 20260505064646 | 65 | 214 | 4.3 | 4.3 | 0.00 | 0.32 | 0.23 | 56 | 1015.8 |
| 20260505064145 | 65 | 204 | 4.3 | 4.3 | 0.00 | 0.32 | 0.23 | 57 | 1016.0 |
| 20260505063643 | 65 | 205 | 4.3 | 5.2 | 0.00 | 0.32 | 0.23 | 58 | 1015.9 |
| 20260505063140 | 65 | 212 | 3.5 | 5.2 | 0.00 | 0.32 | 0.23 | 56 | 1016.0 |
| 20260505062639 | 66 | 200 | 3.5 | 5.2 | 0.00 | 0.32 | 0.23 | 57 | 1015.8 |
| 20260505061633 | 66 | 208 | 5.2 | 7.8 | 0.00 | 0.32 | 0.23 | 56 | 1015.6 |
| 20260505061131 | 66 | 200 | 5.2 | 7.0 | 0.00 | 0.32 | 0.23 | 56 | 1015.6 |
| 20260505055624 | 67 | 212 | 2.6 | 4.3 | 0.00 | 0.32 | 0.23 | 51 | 1015.8 |
| 20260505055123 | 68 | 206 | 1.7 | 3.5 | 0.00 | 0.32 | 0.23 | 48 | 1015.8 |
| 20260505054622 | 68 | 222 | 3.5 | 5.2 | 0.00 | 0.32 | 0.23 | 49 | 1015.7 |
| 20260505054118 | 68 | 232 | 3.5 | 7.0 | 0.00 | 0.32 | 0.23 | 49 | 1015.7 |
| 20260505053114 | 68 | 233 | 4.3 | 7.0 | 0.00 | 0.32 | 0.23 | 47 | 1015.7 |
| 20260505052612 | 69 | 248 | 2.6 | 5.2 | 0.00 | 0.32 | 0.23 | 48 | 1015.7 |
| 20260505052111 | 68 | 234 | 3.5 | 6.1 | 0.00 | 0.32 | 0.23 | 49 | 1015.6 |
| 20260505051105 | 67 | 297 | 1.7 | 4.3 | 0.00 | 0.32 | 0.23 | 50 | 1015.4 |
| 20260505050604 | 67 | 274 | 4.3 | 7.8 | 0.00 | 0.32 | 0.23 | 48 | 1015.4 |
| 20260505041546 | 68 | 306 | 3.5 | 6.1 | 0.00 | 0.32 | 0.23 | 57 | 1015.6 |
| 20260505041044 | 68 | 304 | 3.5 | 7.0 | 0.00 | 0.32 | 0.23 | 55 | 1015.5 |
| 20260505040039 | 68 | 298 | 2.6 | 5.2 | 0.00 | 0.32 | 0.23 | 55 | 1015.2 |
| 20260505035537 | 68 | 277 | 3.5 | 7.0 | 0.00 | 0.32 | 0.23 | 52 | 1015.3 |
| 20260505035034 | 68 | 303 | 2.6 | 4.3 | 0.00 | 0.32 | 0.23 | 55 | 1015.2 |
| 20260505034534 | 67 | 278 | 4.3 | 7.0 | 0.00 | 0.32 | 0.23 | 52 | 1015.3 |
| 20260505034032 | 67 | 294 | 2.6 | 6.1 | 0.00 | 0.32 | 0.23 | 54 | 1015.3 |
| 20260505033530 | 67 | 301 | 2.6 | 6.1 | 0.00 | 0.32 | 0.23 | 54 | 1015.4 |
| 20260505033028 | 67 | 308 | 5.2 | 7.0 | 0.00 | 0.32 | 0.23 | 59 | 1015.5 |
| 20260505032527 | 67 | 303 | 3.5 | 7.0 | 0.00 | 0.32 | 0.23 | 58 | 1015.5 |
| 20260505032026 | 67 | 316 | 2.6 | 6.1 | 0.00 | 0.32 | 0.23 | 60 | 1015.7 |
| 20260505031525 | 67 | 310 | 3.5 | 6.1 | 0.00 | 0.32 | 0.23 | 57 | 1015.7 |
| 20260505031023 | 67 | 310 | 4.3 | 7.8 | 0.00 | 0.32 | 0.23 | 63 | 1015.8 |
| 20260505025516 | 66 | 271 | 4.3 | 8.7 | 0.00 | 0.32 | 0.23 | 63 | 1015.9 |
| 20260505025014 | 66 | 287 | 3.5 | 7.0 | 0.00 | 0.32 | 0.23 | 66 | 1016.0 |
| 20260505024009 | 66 | 267 | 5.2 | 8.7 | 0.00 | 0.32 | 0.23 | 67 | 1016.1 |
| 20260505023507 | 66 | 278 | 3.5 | 7.0 | 0.00 | 0.32 | 0.23 | 68 | 1016.1 |
| 20260505023005 | 66 | 275 | 3.5 | 7.0 | 0.00 | 0.32 | 0.23 | 64 | 1016.2 |
| 20260505022504 | 67 | 266 | 4.3 | 7.8 | 0.00 | 0.32 | 0.23 | 61 | 1016.2 |
| 20260505022002 | 67 | 274 | 3.5 | 7.0 | 0.00 | 0.32 | 0.23 | 52 | 1016.4 |
| 20260505021459 | 67 | 261 | 3.5 | 7.8 | 0.00 | 0.32 | 0.23 | 50 | 1016.4 |
| 20260505020956 | 67 | 241 | 5.2 | 8.7 | 0.00 | 0.32 | 0.23 | 46 | 1016.5 |
| 20260505020454 | 67 | 238 | 5.2 | 9.6 | 0.00 | 0.32 | 0.23 | 46 | 1016.4 |
| 20260505015953 | 66 | 256 | 7.0 | 9.6 | 0.00 | 0.32 | 0.23 | 46 | 1016.5 |
| 20260505015452 | 67 | 263 | 7.0 | 12.2 | 0.00 | 0.32 | 0.23 | 47 | 1016.5 |
| 20260505014950 | 67 | 270 | 4.3 | 7.8 | 0.00 | 0.32 | 0.23 | 53 | 1016.5 |
| 20260505014448 | 67 | 283 | 4.3 | 8.7 | 0.00 | 0.32 | 0.23 | 53 | 1016.6 |
| 20260505012940 | 67 | 254 | 6.1 | 11.3 | 0.00 | 0.32 | 0.23 | 48 | 1016.8 |
| 20260505012439 | 67 | 254 | 4.3 | 9.6 | 0.00 | 0.32 | 0.23 | 54 | 1016.8 |
| 20260505011938 | 67 | 260 | 7.0 | 10.4 | 0.00 | 0.32 | 0.23 | 51 | 1017.1 |
| 20260505011437 | 67 | 246 | 5.2 | 8.7 | 0.00 | 0.32 | 0.23 | 55 | 1017.1 |
| 20260505010934 | 67 | 245 | 4.3 | 10.4 | 0.00 | 0.32 | 0.23 | 57 | 1017.0 |
| 20260505010432 | 66 | 246 | 4.3 | 9.6 | 0.00 | 0.32 | 0.23 | 55 | 1017.1 |
| 20260505004921 | 66 | 238 | 7.0 | 13.0 | 0.00 | 0.32 | 0.23 | 52 | 1017.2 |
| 20260505004418 | 66 | 239 | 5.2 | 9.6 | 0.00 | 0.32 | 0.23 | 53 | 1017.2 |
| 20260505003917 | 66 | 230 | 6.1 | 9.6 | 0.00 | 0.32 | 0.23 | 52 | 1017.2 |
| 20260505003414 | 66 | 237 | 6.1 | 9.6 | 0.00 | 0.32 | 0.23 | 54 | 1017.3 |
| 20260505002912 | 67 | 218 | 4.3 | 7.0 | 0.00 | 0.32 | 0.23 | 54 | 1017.3 |